• în România
  • Lista ţărilor
  • Pe 7 zile
  • Temperatura apei
  • Hartă satelitară
  • Meteo pe hartă
  • Widget-uri
  • user-avatar
    Intrare

    Meteo pe oră la Brussels

    Astăzi, 19 Septembrie, Miercuri

    Timp Temperatura Precipitaţii Vânt Presiune Umiditate
    00:00 +17°C° 0 mm 2 m/s 759 mmHg 88%
    01:00 +16°C° 0 mm 2 m/s 759 mmHg 88%
    02:00 +16°C° 0 mm 2 m/s 759 mmHg 88%
    03:00 +16°C° 0 mm 3 m/s 759 mmHg 88%
    04:00 +16°C° 0 mm 3 m/s 759 mmHg 89%
    05:00 +16°C° 0 mm 3 m/s 759 mmHg 89%
    06:00 +15°C° 0 mm 4 m/s 759 mmHg 90%
    07:00 +18°C° 0 mm 4 m/s 759 mmHg 83%
    08:00 +20°C° 0 mm 5 m/s 759 mmHg 76%
    09:00 +22°C° 0 mm 6 m/s 759 mmHg 69%
    10:00 +22°C° 0 mm 6 m/s 759 mmHg 64%
    11:00 +23°C° 0 mm 6 m/s 759 mmHg 60%
    12:00 +24°C° 0 mm 7 m/s 759 mmHg 55%
    13:00 +24°C° 0 mm 6 m/s 759 mmHg 55%
    14:00 +24°C° 0 mm 6 m/s 759 mmHg 55%
    15:00 +24°C° 0 mm 6 m/s 759 mmHg 55%
    16:00 +23°C° 0 mm 5 m/s 759 mmHg 60%
    17:00 +22°C° 0 mm 4 m/s 759 mmHg 66%
    18:00 +20°C° 0 mm 3 m/s 759 mmHg 71%
    19:00 +20°C° 0 mm 3 m/s 759 mmHg 73%
    20:00 +19°C° 0 mm 3 m/s 760 mmHg 76%
    21:00 +18°C° 0 mm 3 m/s 760 mmHg 78%
    22:00 +18°C° 0 mm 3 m/s 760 mmHg 81%
    23:00 +18°C° 0 mm 3 m/s 760 mmHg 83%

    Mâine, 20 Septembrie, Joi

    Timp Temperatura Precipitaţii Vânt Presiune Umiditate
    00:00 +17°C° 0 mm 3 m/s 760 mmHg 85%
    01:00 +17°C° 0 mm 3 m/s 760 mmHg 87%
    02:00 +16°C° 0 mm 3 m/s 760 mmHg 90%
    03:00 +16°C° 0 mm 3 m/s 760 mmHg 92%
    04:00 +16°C° 0 mm 3 m/s 760 mmHg 92%
    05:00 +16°C° 0 mm 3 m/s 760 mmHg 92%
    06:00 +15°C° 0 mm 4 m/s 760 mmHg 92%
    07:00 +17°C° 0 mm 4 m/s 760 mmHg 85%
    08:00 +19°C° 0 mm 5 m/s 760 mmHg 78%
    09:00 +21°C° 0 mm 6 m/s 760 mmHg 71%
    10:00 +22°C° 0 mm 6 m/s 759 mmHg 66%
    11:00 +23°C° 0 mm 6 m/s 759 mmHg 62%
    12:00 +24°C° 0 mm 6 m/s 759 mmHg 57%
    13:00 +26°C° 0 mm 6 m/s 758 mmHg 57%
    14:00 +26°C° 0 mm 6 m/s 758 mmHg 56%
    15:00 +26°C° 0 mm 6 m/s 757 mmHg 55%
    16:00 +25°C° 0 mm 5 m/s 757 mmHg 59%
    17:00 +22°C° 0 mm 4 m/s 756 mmHg 64%
    18:00 +21°C° 0 mm 3 m/s 755 mmHg 68%
    19:00 +21°C° 0 mm 4 m/s 755 mmHg 66%
    20:00 +21°C° 0 mm 4 m/s 755 mmHg 63%
    21:00 +21°C° 0 mm 5 m/s 754 mmHg 60%
    22:00 +21°C° 0 mm 5 m/s 754 mmHg 58%
    23:00 +21°C° 0 mm 6 m/s 753 mmHg 56%

    Poimâine, 21 Septembrie, Vineri

    Timp Temperatura Precipitaţii Vânt Presiune Umiditate
    00:00 +21°C° 0 mm 7 m/s 752 mmHg 54%
    01:00 +21°C° 0 mm 7 m/s 752 mmHg 55%
    02:00 +21°C° 0 mm 8 m/s 751 mmHg 57%
    03:00 +21°C° 0 mm 8 m/s 750 mmHg 58%
    04:00 +19°C° 0.5 mm 9 m/s 750 mmHg 65%
    05:00 +19°C° 0.5 mm 9 m/s 750 mmHg 71%
    06:00 +18°C° 0.5 mm 9 m/s 751 mmHg 77%
    07:00 +17°C° 0.5 mm 9 m/s 752 mmHg 74%
    08:00 +16°C° 0.5 mm 8 m/s 752 mmHg 72%
    09:00 +15°C° 0.5 mm 7 m/s 753 mmHg 69%
    10:00 +15°C° 0 mm 7 m/s 754 mmHg 61%
    11:00 +16°C° 0 mm 7 m/s 755 mmHg 53%
    12:00 +17°C° 0 mm 8 m/s 756 mmHg 46%
    13:00 +17°C° 0 mm 8 m/s 756 mmHg 46%
    14:00 +17°C° 0 mm 8 m/s 756 mmHg 45%
    15:00 +17°C° 0 mm 8 m/s 757 mmHg 45%
    16:00 +16°C° 0 mm 7 m/s 757 mmHg 49%
    17:00 +15°C° 0 mm 6 m/s 758 mmHg 52%
    18:00 +14°C° 0 mm 5 m/s 758 mmHg 55%
    19:00 +13°C° 0 mm 5 m/s 759 mmHg 58%
    20:00 +13°C° 0 mm 5 m/s 759 mmHg 60%
    21:00 +12°C° 0 mm 5 m/s 760 mmHg 63%
    22:00 +12°C° 0 mm 5 m/s 760 mmHg 65%
    23:00 +12°C° 0 mm 5 m/s 761 mmHg 67%

    22 Septembrie, Sâmbătă

    Timp Temperatura Precipitaţii Vânt Presiune Umiditate
    00:00 +10°C° 0 mm 5 m/s 761 mmHg 69%
    01:00 +11°C° 0 mm 4 m/s 761 mmHg 72%
    02:00 +10°C° 0 mm 4 m/s 762 mmHg 74%
    03:00 +10°C° 0 mm 4 m/s 762 mmHg 76%
    04:00 +10°C° 0 mm 4 m/s 762 mmHg 78%
    05:00 +8°C° 0 mm 4 m/s 763 mmHg 80%
    06:00 +8°C° 0 mm 4 m/s 763 mmHg 82%
    07:00 +11°C° 0.1 mm 4 m/s 763 mmHg 74%
    08:00 +13°C° 0.1 mm 5 m/s 764 mmHg 67%
    09:00 +15°C° 0.1 mm 5 m/s 764 mmHg 59%
    10:00 +15°C° 0.1 mm 5 m/s 764 mmHg 57%
    11:00 +16°C° 0.1 mm 5 m/s 764 mmHg 55%
    12:00 +16°C° 0.1 mm 5 m/s 764 mmHg 53%
    13:00 +16°C° 0.1 mm 5 m/s 764 mmHg 51%
    14:00 +17°C° 0.1 mm 5 m/s 764 mmHg 50%
    15:00 +17°C° 0.1 mm 5 m/s 764 mmHg 49%
    16:00 +15°C° 0 mm 4 m/s 764 mmHg 54%
    17:00 +14°C° 0 mm 3 m/s 764 mmHg 58%
    18:00 +13°C° 0 mm 2 m/s 764 mmHg 63%
    19:00 +13°C° 0 mm 1 m/s 764 mmHg 64%
    20:00 +12°C° 0 mm 1 m/s 764 mmHg 66%
    21:00 +12°C° 0 mm 1 m/s 764 mmHg 67%
    22:00 +12°C° 0 mm 2 m/s 764 mmHg 67%
    23:00 +12°C° 0 mm 2 m/s 764 mmHg 67%

    23 Septembrie, Duminică

    Timp Temperatura Precipitaţii Vânt Presiune Umiditate
    00:00 +12°C° 0 mm 2 m/s 763 mmHg 67%
    01:00 +11°C° 0.4 mm 3 m/s 762 mmHg 72%
    02:00 +11°C° 0.4 mm 3 m/s 762 mmHg 76%
    03:00 +11°C° 0.4 mm 3 m/s 761 mmHg 81%
    04:00 +10°C° 0.5 mm 5 m/s 760 mmHg 81%
    05:00 +10°C° 0.5 mm 6 m/s 758 mmHg 80%
    06:00 +10°C° 0.5 mm 7 m/s 757 mmHg 80%
    07:00 +11°C° 0.2 mm 8 m/s 756 mmHg 76%
    08:00 +12°C° 0.2 mm 8 m/s 754 mmHg 71%
    09:00 +13°C° 0.2 mm 9 m/s 752 mmHg 67%
    10:00 +16°C° 0.5 mm 10 m/s 751 mmHg 67%
    11:00 +18°C° 0.5 mm 11 m/s 749 mmHg 66%
    12:00 +19°C° 0.5 mm 11 m/s 747 mmHg 66%
    13:00 +21°C° 0.4 mm 12 m/s 746 mmHg 66%
    14:00 +22°C° 0.4 mm 13 m/s 744 mmHg 67%
    15:00 +22°C° 0.4 mm 13 m/s 743 mmHg 68%
    16:00 +19°C° 0.3 mm 14 m/s 742 mmHg 67%
    17:00 +17°C° 0.3 mm 14 m/s 741 mmHg 65%
    18:00 +14°C° 0.3 mm 15 m/s 741 mmHg 64%
    19:00 +13°C° 0.3 mm 14 m/s 741 mmHg 67%
    20:00 +13°C° 0.3 mm 14 m/s 741 mmHg 71%
    21:00 +12°C° 0.3 mm 14 m/s 741 mmHg 74%
    22:00 +13°C° 0.5 mm 14 m/s 743 mmHg 74%
    23:00 +13°C° 0.5 mm 15 m/s 745 mmHg 75%

    24 Septembrie, Luni

    Timp Temperatura Precipitaţii Vânt Presiune Umiditate
    00:00 +13°C° 0.5 mm 15 m/s 747 mmHg 76%
    01:00 +13°C° 0.2 mm 14 m/s 751 mmHg 73%
    02:00 +12°C° 0.2 mm 12 m/s 754 mmHg 71%
    03:00 +12°C° 0.2 mm 11 m/s 757 mmHg 68%
    04:00 +12°C° 0.1 mm 10 m/s 759 mmHg 68%
    05:00 +11°C° 0.1 mm 9 m/s 761 mmHg 67%
    06:00 +11°C° 0.1 mm 8 m/s 763 mmHg 67%
    07:00 +12°C° 0.1 mm 8 m/s 764 mmHg 63%
    08:00 +12°C° 0.1 mm 8 m/s 765 mmHg 60%
    09:00 +13°C° 0.1 mm 8 m/s 767 mmHg 57%
    10:00 +13°C° 0.1 mm 8 m/s 768 mmHg 57%
    11:00 +13°C° 0.1 mm 8 m/s 768 mmHg 58%
    12:00 +14°C° 0.1 mm 7 m/s 769 mmHg 58%
    13:00 +14°C° 0.1 mm 7 m/s 770 mmHg 57%
    14:00 +14°C° 0.1 mm 7 m/s 770 mmHg 56%
    15:00 +14°C° 0.1 mm 7 m/s 771 mmHg 55%
    16:00 +13°C° 0 mm 6 m/s 771 mmHg 58%
    17:00 +12°C° 0 mm 4 m/s 771 mmHg 61%
    18:00 +11°C° 0 mm 3 m/s 772 mmHg 64%
    19:00 +11°C° 0 mm 3 m/s 772 mmHg 65%
    20:00 +12°C° 0 mm 2 m/s 773 mmHg 67%
    21:00 +10°C° 0 mm 2 m/s 773 mmHg 69%
    22:00 +10°C° 0 mm 2 m/s 774 mmHg 71%
    23:00 +10°C° 0 mm 2 m/s 774 mmHg 72%
    Arată mai mult